[[{"header":{"parameterUnit":"m.s-1","parameterCategory":1,"la1":30.2991,"la2":30.254,"lo1":-89.0895,"lo2":-89.0444,"dy":0.0017,"dx":0.0017,"nx":28,"ny":28,"refTime":"2023-10-01T03:00:00:Z","depth":0,"parameterNumber":2,"parameterNumberName":"U-component_of_WINDS"},"data":[0,0,0,0,0,0,0,0,0,0,0,0,0,0,0,0,0,0,0,0,0,0,0,0,0,0,0,0,0,0,0,0,0,0,0,0,0,0,0,0,0,0,0,0,0,0,0,0,0,0,0,0,0,0,0,0,0,0,-2.0856,-2.0856,0,-2.0903,-2.0904,-2.0904,-2.0797,-2.0794,-2.079,-2.0787,-2.0841,-2.0846,-2.085,0,0,0,0,0,0,0,0,0,0,0,0,0,-2.068,-2.0684,-2.0856,-2.0856,-2.0857,-2.0903,-2.0904,-2.0904,-2.0798,-2.0793,-2.0789,-2.0785,-2.084,-2.0845,-2.0851,0,0,0,0,0,0,0,0,0,0,0,0,0,-2.0745,-2.0685,-2.0856,-2.0809,-2.0805,-2.0903,-2.0904,-2.0904,-2.0799,-2.0793,-2.0788,-2.0783,-2.0838,-2.0845,-2.0852,-2.0998,0,0,-2.0873,-2.0876,0,0,0,0,0,0,0,0,-2.0742,-2.0752,-2.0815,-2.0813,-2.0809,-2.0839,-2.0862,-2.0936,-2.08,-2.0801,-2.0787,-2.0781,-2.0845,-2.0851,-2.0871,-2.1001,-2.1003,-2.0874,-2.0878,-2.0881,-2.0883,0,0,0,0,0,0,0,-2.0737,-2.0749,-2.0875,-2.0817,-2.0812,-2.0788,-2.0792,-2.0875,-2.0852,-2.0801,-2.0793,-2.08,-2.0842,-2.0865,-2.0872,-2.1004,-2.0873,-2.088,-2.0884,-2.0887,-2.126,-2.1266,0,0,0,0,0,0,-2.0738,-2.0746,-2.0873,-2.0876,-2.0761,-2.0796,-2.0799,-2.0834,-2.0851,-2.0848,-2.0804,-2.0795,-2.0856,-2.0864,-2.0874,-2.1049,-2.0881,-2.0887,-2.0891,-2.1254,-2.1261,-2.1268,0,0,0,0,0,0,-2.0734,-2.075,-2.0871,-2.0809,-2.0823,-2.0804,-2.0844,-2.0838,-2.0861,-2.0853,-2.0849,-2.0832,-2.0852,-2.0864,-2.0969,-2.105,-2.089,-2.0897,-2.1248,-2.1257,-2.1265,-2.14,0,0,0,0,0,0,-2.073,-2.075,-2.0803,-2.0811,-2.0826,-2.0964,-2.0849,-2.0843,-2.0872,-2.086,-2.0878,-2.0876,-2.0849,-2.0959,-2.0976,-2.1056,-2.0902,-2.124,-2.1252,-2.1262,-2.1389,-2.1413,-2.1433,0,0,0,0,0,-2.0724,-2.084,-2.0807,-2.0822,-2.0893,-2.0968,-2.0977,-2.0943,-2.0879,-2.0935,-2.093,-2.0875,-2.1037,-2.097,-2.0988,-2.1073,-2.1235,-2.1249,-2.1261,-2.1379,-2.1408,-2.1433,0,0,0,0,0,0,-2.0844,-2.084,-2.0803,-2.0924,-2.0948,-2.095,-2.1019,-2.0974,-2.1017,-2.1004,-2.0961,-2.0966,-2.108,-2.1086,-2.1011,-2.1217,-2.1126,-2.1143,-2.1209,-2.1237,-2.1259,-2.1256,-2.0908,0,0,0,0,0,-2.0884,-2.0944,-2.0938,-2.1046,-2.1059,-2.1038,-2.1069,-2.104,-2.1063,-2.1073,-2.1076,-2.1102,-2.1159,-2.1198,-2.125,-2.1388,-2.1393,-2.1455,-2.1478,-2.1496,-2.1512,-2.159,-2.1619,-2.131,-2.131,-2.131,0,0,-2.0969,-2.0974,-2.1015,-2.107,-2.1085,-2.1151,-2.1046,-2.1119,-2.1169,-2.1084,-2.1184,-2.1188,-2.1214,-2.1338,-2.1392,-2.1346,-2.1598,-2.1512,-2.1527,-2.1533,-2.1606,-2.1636,-2.1662,-2.1319,-2.1317,-2.1316,0,0,-2.1157,-2.1165,-2.1258,-2.1274,-2.1297,-2.1282,-2.1305,-2.1315,-2.1313,-2.1412,-2.1351,-2.141,-2.1509,-2.1531,-2.1556,-2.1755,-2.1707,-2.1773,-2.189,-2.1967,-2.1991,-2.2012,-2.2087,-2.2114,-2.1789,-2.1789,-2.1789,0,-2.126,-2.1354,-2.1312,-2.139,-2.1418,-2.1343,-2.1438,-2.1457,-2.1497,-2.1519,-2.1467,-2.1591,-2.1603,-2.1732,-2.1781,-2.1802,-2.183,-2.1772,-2.199,-2.2011,-2.2031,-2.2102,-2.213,-2.1797,-2.1796,-2.1795,-2.1795,0,-2.1481,-2.1548,-2.162,-2.166,-2.1695,-2.1782,-2.1755,-2.1797,-2.1766,-2.1757,-2.1861,-2.1873,-2.1928,-2.1956,-2.1926,-2.2083,-2.2054,-2.1997,-2.1905,-2.2069,-2.2136,-2.2162,-2.1809,-2.1806,-2.1803,-2.1801,0,0,-2.1747,-2.1762,-2.179,-2.1808,-2.1829,-2.1881,-2.1965,-2.2017,-2.2056,-2.2086,-2.2159,-2.2244,-2.2192,-2.222,-2.2192,-2.2259,-2.2421,-2.2193,-2.2193,-2.2238,-2.2599,-2.2645,-2.2676,-2.2388,-2.2393,-2.2397,-2.2598,0,-2.1936,-2.2079,-2.2045,-2.2188,-2.2251,-2.2182,-2.2256,-2.2279,-2.2273,-2.2328,-2.2323,-2.2386,-2.231,-2.2327,-2.2389,-2.2388,-2.2493,-2.2372,-2.2459,-2.2463,-2.2458,-2.271,-2.2758,-2.2947,-2.2623,-2.2627,-2.2631,0,-2.2175,-2.2214,-2.2364,-2.2377,-2.2402,-2.2469,-2.2516,-2.2568,-2.2593,-2.2585,-2.2617,-2.2577,-2.2664,-2.2569,-2.2691,-2.261,-2.2643,-2.2648,-2.2655,-2.2664,-2.2559,-2.273,-2.3006,-2.3036,-2.267,-2.2667,-2.2664,0,-2.2359,-2.2449,-2.255,-2.2568,-2.2584,-2.2634,-2.2643,-2.2663,-2.2698,-2.2739,-2.2762,-2.2813,-2.2843,-2.2885,-2.2861,-2.2794,-2.2989,-2.2891,-2.2988,-2.2989,-2.3035,-2.3033,-2.3324,-2.3051,-2.305,-2.305,-2.3049,0,-2.2575,-2.2671,-2.2633,-2.2697,-2.2802,-2.2762,-2.2869,-2.2871,-2.289,-2.2954,-2.2897,-2.296,-2.2923,-2.2983,-2.2965,-2.3071,-2.3084,-2.3083,-2.3078,-2.309,-2.3091,-2.3113,-2.3101,-2.3057,-2.3056,-2.3054,-2.3053,0,-2.2799,-2.2777,-2.2885,-2.2891,-2.2896,-2.2974,-2.2981,-2.3042,-2.3032,-2.3115,-2.3132,-2.3118,-2.3187,-2.3167,-2.3241,-2.3229,-2.3365,-2.3341,-2.3356,-2.3351,-2.3451,-2.3443,-2.3769,-2.3812,-2.3509,-2.3511,-2.3514,0,-2.294,-2.3012,-2.3027,-2.3065,-2.3079,-2.3141,-2.3176,-2.314,-2.318,-2.3215,-2.3273,-2.3336,-2.3384,-2.3498,-2.3497,-2.3554,-2.3534,-2.3644,-2.3542,-2.3553,-2.354,-2.3537,-2.3546,-2.3665,-2.3669,-2.3672,-2.3674,0,-2.3195,-2.3181,-2.3232,-2.3281,-2.3324,-2.3362,-2.3394,-2.3429,-2.3396,-2.3444,-2.3512,-2.355,-2.3626,-2.3692,-2.3744,-2.3757,-2.3713,-2.3705,-2.3732,-2.3747,-2.3754,-2.3755,-2.3415,-2.3699,-2.3696,-2.3695,-2.3693,-2.3692,-2.3384,-2.3445,-2.3466,-2.3526,-2.3547,-2.3579,-2.3637,-2.3634,-2.369,-2.3749,-2.3724,-2.3805,-2.3831,-2.3897,-2.3917,-2.3982,-2.394,-2.3977,-2.3987,-2.3998,-2.4012,-2.3741,-2.3991,-2.399,-2.3989,-2.3989,-2.3988,0,-2.3638,-2.3648,-2.3703,-2.375,-2.3799,-2.3749,-2.3783,-2.3828,-2.3899,-2.3926,-2.3975,-2.4057,-2.412,-2.4124,-2.4184,-2.4235,-2.4217,-2.4253,-2.425,-2.4255,-2.4044,-2.4017,-2.4267,-2.4267,-2.4267,-2.4267,-2.4267,-2.4267,-2.3776,-2.3879,-2.3868,-2.3982,-2.3992,-2.4069,-2.4093,-2.4124,-2.4146,-2.4238,-2.429,-2.4291,-2.4311,-2.4372,-2.4429,-2.4429,-2.4456,-2.4501,-2.4494,-2.4297,-2.4269,-2.4243,-2.4218,-2.4506,-2.4506,-2.4699,-2.4701,-2.4703]},{"header":{"parameterUnit":"m.s-1","parameterCategory":1,"la1":30.2991,"la2":30.254,"lo1":-89.0895,"lo2":-89.0444,"dy":0.0017,"dx":0.0017,"nx":28,"ny":28,"refTime":"2023-10-01T03:00:00:Z","depth":0,"parameterNumber":3,"parameterNumberName":"V-component_of_WINDS"},"data":[0,0,0,0,0,0,0,0,0,0,0,0,0,0,0,0,0,0,0,0,0,0,0,0,0,0,0,0,0,0,0,0,0,0,0,0,0,0,0,0,0,0,0,0,0,0,0,0,0,0,0,0,0,0,0,0,0,0,2.0213,2.0213,0,2.0237,2.0237,2.0237,2.0241,2.0241,2.024,2.024,2.0263,2.0263,2.0264,0,0,0,0,0,0,0,0,0,0,0,0,0,2.0169,2.0169,2.0213,2.0213,2.0213,2.0237,2.0237,2.0237,2.0241,2.0241,2.024,2.024,2.0262,2.0263,2.0264,0,0,0,0,0,0,0,0,0,0,0,0,0,2.019,2.017,2.0213,2.0218,2.0219,2.0237,2.0237,2.0237,2.0241,2.0241,2.024,2.024,2.0262,2.0263,2.0264,2.0278,0,0,2.0268,2.0268,0,0,0,0,0,0,0,0,2.0188,2.0191,2.0217,2.0218,2.0218,2.0236,2.023,2.0251,2.0241,2.0232,2.024,2.024,2.0254,2.0255,2.0261,2.0279,2.028,2.0268,2.0269,2.0269,2.027,0,0,0,0,0,0,0,2.0187,2.019,2.0222,2.0217,2.0218,2.0219,2.0221,2.0234,2.0244,2.0233,2.0233,2.0236,2.0254,2.0259,2.0261,2.028,2.0268,2.0269,2.027,2.027,2.0312,2.0312,0,0,0,0,0,0,2.0185,2.0189,2.0221,2.0223,2.0202,2.022,2.0223,2.023,2.0244,2.0246,2.0237,2.0236,2.0258,2.026,2.0262,2.0279,2.0269,2.027,2.0271,2.0311,2.0312,2.0312,0,0,0,0,0,0,2.0184,2.0188,2.022,2.0206,2.021,2.0221,2.0229,2.0231,2.0236,2.0247,2.0249,2.024,2.0257,2.026,2.0274,2.028,2.0271,2.0272,2.0311,2.0311,2.0312,2.0313,0,0,0,0,0,0,2.0183,2.0187,2.0193,2.0206,2.0211,2.0233,2.023,2.0232,2.0239,2.0239,2.0251,2.0253,2.0257,2.0272,2.0275,2.0281,2.0273,2.031,2.0311,2.0312,2.0313,2.0314,2.0315,0,0,0,0,0,2.0181,2.0192,2.0193,2.0197,2.0218,2.0233,2.0236,2.0242,2.0239,2.0245,2.0252,2.0252,2.0279,2.0274,2.0277,2.0284,2.031,2.0311,2.0312,2.0312,2.0314,2.0315,0,0,0,0,0,0,2.0177,2.0193,2.0195,2.021,2.0221,2.0234,2.024,2.0243,2.0253,2.0252,2.0259,2.0261,2.0275,2.0281,2.0275,2.0298,2.0294,2.0296,2.0294,2.0295,2.0296,2.0294,2.0274,0,0,0,0,0,2.0178,2.019,2.0203,2.0215,2.022,2.023,2.0236,2.024,2.025,2.0254,2.0262,2.0272,2.0282,2.0289,2.0299,2.0314,2.0317,2.032,2.0321,2.0322,2.0323,2.0332,2.0333,2.0315,2.0315,2.0315,0,0,2.018,2.0191,2.0197,2.0215,2.0223,2.0234,2.0233,2.0244,2.0253,2.0256,2.027,2.0276,2.0287,2.0302,2.0308,2.0307,2.0329,2.0323,2.0324,2.0324,2.0333,2.0334,2.0336,2.0316,2.0316,2.0315,0,0,2.019,2.0199,2.021,2.0219,2.0232,2.0238,2.0241,2.0254,2.0259,2.0273,2.0276,2.0286,2.0304,2.0312,2.0318,2.0332,2.0333,2.0336,2.034,2.0349,2.035,2.0351,2.0356,2.0358,2.0337,2.0337,2.0337,0,2.019,2.0208,2.0216,2.0228,2.0235,2.024,2.0252,2.0259,2.0275,2.028,2.0278,2.0302,2.0309,2.0326,2.0329,2.0335,2.0338,2.0334,2.0349,2.0351,2.0352,2.0357,2.0359,2.0337,2.0337,2.0337,2.0337,0,2.0208,2.022,2.0228,2.0244,2.0252,2.0264,2.0273,2.0281,2.0285,2.0291,2.0306,2.0316,2.0328,2.0333,2.0336,2.035,2.0349,2.0348,2.0344,2.0354,2.0358,2.036,2.0337,2.0337,2.0337,2.0337,0,0,2.0214,2.0236,2.0238,2.0246,2.0261,2.0271,2.0283,2.0296,2.0303,2.0313,2.0323,2.0339,2.034,2.0347,2.0351,2.0358,2.0369,2.0357,2.0357,2.0359,2.0385,2.0385,2.0387,2.037,2.0371,2.0371,2.0384,0,2.0225,2.0248,2.0256,2.0274,2.0285,2.0291,2.0301,2.0312,2.0319,2.0329,2.0336,2.0347,2.0347,2.0351,2.0359,2.0366,2.0374,2.0365,2.0379,2.0379,2.0375,2.039,2.0389,2.0401,2.0386,2.0386,2.0387,0,2.0241,2.0253,2.0273,2.0288,2.0293,2.0302,2.0316,2.0326,2.0338,2.0342,2.0351,2.0355,2.0368,2.0364,2.0381,2.0375,2.0381,2.0386,2.0387,2.0387,2.0383,2.039,2.0405,2.0407,2.039,2.0389,2.0389,0,2.0243,2.0265,2.028,2.0286,2.0304,2.031,2.0318,2.033,2.0338,2.0349,2.0354,2.0367,2.0374,2.0383,2.039,2.0387,2.0407,2.0404,2.0411,2.041,2.0414,2.0413,2.0429,2.0419,2.0419,2.0419,2.0419,0,2.0254,2.0266,2.0281,2.029,2.0303,2.0313,2.0326,2.0333,2.0344,2.0354,2.036,2.0369,2.0379,2.0389,2.0395,2.0408,2.0411,2.0415,2.0416,2.0414,2.0414,2.0418,2.0417,2.0419,2.0419,2.0419,2.0419,0,2.0259,2.0269,2.0286,2.0302,2.0307,2.0316,2.0329,2.0338,2.0346,2.0359,2.0362,2.0374,2.0387,2.0395,2.0411,2.0415,2.043,2.0431,2.0426,2.0427,2.0433,2.0432,2.0451,2.0454,2.0442,2.0442,2.0442,0,2.0265,2.0274,2.0292,2.03,2.0308,2.032,2.0329,2.0339,2.0347,2.0362,2.0369,2.0383,2.0394,2.0414,2.0424,2.0436,2.0438,2.0444,2.0439,2.0437,2.0437,2.0436,2.0437,2.0444,2.0444,2.0444,2.0444,0,2.0275,2.028,2.0292,2.0307,2.0318,2.0329,2.0341,2.0347,2.0359,2.0368,2.0382,2.0391,2.0408,2.0421,2.0435,2.0442,2.0445,2.0446,2.0448,2.0445,2.0442,2.0444,2.0427,2.0445,2.0445,2.0445,2.0445,2.0445,2.028,2.0289,2.0303,2.0317,2.0328,2.0339,2.0348,2.0357,2.0369,2.0385,2.039,2.0404,2.0416,2.0435,2.0443,2.0454,2.0453,2.0456,2.0457,2.0457,2.0457,2.0441,2.0456,2.0456,2.0456,2.0456,2.0456,0,2.029,2.03,2.0313,2.033,2.0341,2.0344,2.0358,2.0366,2.0379,2.0391,2.0403,2.0419,2.0432,2.0443,2.0456,2.0463,2.0465,2.0466,2.0465,2.0467,2.0457,2.0454,2.0464,2.0464,2.0464,2.0464,2.0464,2.0464,2.0297,2.0312,2.0319,2.034,2.0349,2.0364,2.0371,2.0382,2.0391,2.0409,2.0421,2.0428,2.044,2.0454,2.0466,2.0469,2.0474,2.0475,2.0478,2.0468,2.0468,2.0467,2.0464,2.0476,2.0476,2.0487,2.0487,2.0487]}]]